Regional Weather Roundup
Issued by NWS

Home | Current Version | Previous Version | Graphics & Text | Print | Product List | Glossary On
Versions: 1 2 3 4 5 6 7 8 9 10 11 12 13 14 15 16 17 18 19 20 21 22 23 24 25 26 27 28 29 30 31 32 33 34 35 36 37 38 39 40 41 42 43 44 45 46 47 48 49 50
000
ASUS45 KABQ 172110
RWRNM
NEW MEXICO REGIONAL WEATHER ROUNDUP
NATIONAL WEATHER SERVICE ALBUQUERQUE NM
200 PM MST SUN DEC 17 2017

NOTE: "FAIR" MEANS FEW OR NO CLOUDS BELOW 12,000 FEET AGL WITH NO
       SIGNIFICANT WEATHER OR OBSTRUCTIONS TO VISION.

      THIS PRODUCT IS RELEASED AS TWO VERSIONS.  ONE VERSION NEAR
      THE TOP OF THE HOUR CONTAINING PRELIMINARY DATA FROM ALBUQUERQUE
      AND OTHER STATIONS.  A FINAL VERSION WITH ADDITIONAL DATA IS
      ISSUED ABOUT 10 MINUTES AFTER THE HOUR.

NMZ501-503-504-510>518-172200-
NORTHWEST PLATEAU/NORTHCENTRAL MOUNTAINS

CITY           SKY/WX    TMP DP  RH WIND       PRES   REMARKS
FARMINGTON     FAIR      49   9  19 VRB5      29.96F
LOS ALAMOS     FAIR      45   7  20 SE9       29.98F
SANTA FE       FAIR      49   8  19 SW10      29.97F
TAOS           FAIR      49   5  16 W8        29.98F
ANGEL FIRE     FAIR      46   8  22 W15       29.96F

$$
NMZ402-403-502-505>509-172200-
WESTCENTRAL MOUNTAINS/SOUTHWEST MOUNTAINS

CITY           SKY/WX    TMP DP  RH WIND       PRES   REMARKS
GALLUP         FAIR      51  10  19 N7        29.96F
GRANTS         FAIR      51  13  22 SE8       29.98F
SILVER CITY    LGT RAIN  39  36  89 E8        30.02F WCI  34

$$
NMZ407-409-411-412-172200-
SOUTHERN DESERTS

CITY           SKY/WX    TMP DP  RH WIND       PRES   REMARKS
DEMING         CLOUDY    45  42  89 E9        30.02S
LAS CRUCES     LGT RAIN  47  45  90 CALM      30.03F
HOLLOMAN AFB   FAIR      49  32  51 N6        30.04F
ALAMOGORDO     PTSUNNY   48  28  46 N8        30.02F
T OR C         CLOUDY    44  39  82 S6        30.02S

$$
NMZ519>523-172200-
CENTRAL VALLEYS/CENTRAL HIGHLANDS

CITY           SKY/WX    TMP DP  RH WIND       PRES   REMARKS
ALBUQUERQUE    FAIR      51  13  21 CALM      29.97F
DOUBLE EAGLE   MOSUNNY   50  14  23 SW6       29.98F
MORIARTY ARPT  FAIR      54   9  16 CALM      29.98S
CLINES CORNERS FAIR      47   9  21 W12       29.99S
BELEN          FAIR      54  10  17 SW3       29.98F
SOCORRO        FAIR      54  19  24 S13G20    29.99F

$$
NMZ524>526-539-540-172200-
SOUTHCENTRAL MOUNTAINS

CITY           SKY/WX    TMP DP  RH WIND       PRES   REMARKS
RUIDOSO        CLOUDY    45  25  45 E6        30.03R

$$
NMZ527>531-172200-
NORTHEAST HIGHLANDS/NORTHEAST PLAINS

CITY           SKY/WX    TMP DP  RH WIND       PRES   REMARKS
LAS VEGAS      FAIR      49  10  20 S15       29.94F
RATON          FAIR      49  11  21 S12G22    29.91F
CLAYTON        FAIR      43  25  49 SE3       29.95R

$$
NMZ532>537-172200-
EASTCENTRAL PLAINS

CITY           SKY/WX    TMP DP  RH WIND       PRES   REMARKS
SANTA ROSA     FAIR      56  13  18 CALM      29.93F
TUCUMCARI      FAIR      51  22  31 E8        29.96F
CANNON AFB     FAIR      54  20  26 SE6       29.98F
CLOVIS AIRPORT FAIR      50  22  33 VRB3      29.99F

$$
NMZ028-029-538-172200-
SOUTHEAST PLAINS

CITY           SKY/WX    TMP DP  RH WIND       PRES   REMARKS
ROSWELL        FAIR      62  25  24 S12       29.94F
ARTESIA        FAIR      63  28  27 SE7G14    29.94F
CARLSBAD       FAIR      66  32  28 S21G43    29.92F
HOBBS          SUNNY     63  27  25 VRB3G12   29.98F


$$




USA.gov is the U.S. government's official web portal to all federal, state and local government web resources and services.